Time,TemperatureF,DewpointF,PressureIn,WindDirection,WindDirectionDegrees,WindSpeedMPH,WindSpeedGustMPH,Humidity,HourlyPrecipIn,Conditions,Clouds,dailyrainin,SoftwareType,DateUTC
2013-02-03 00:03:00,28.0,22.0,30.07,West,278,1.0,5.0,79,0.00,,,0.06,,2013-02-03 05:03:00,
2013-02-03 00:12:00,28.0,22.0,30.07,West,278,1.0,5.0,79,0.00,,,0.06,,2013-02-03 05:12:00,
2013-02-03 00:22:00,28.0,22.0,30.08,West,278,0.0,4.0,78,0.00,,,0.06,,2013-02-03 05:22:00,
2013-02-03 00:32:00,28.0,22.0,30.07,West,278,0.0,6.0,78,0.00,,,0.06,,2013-02-03 05:32:00,
2013-02-03 00:42:00,28.0,22.0,30.07,West,278,0.0,6.0,78,0.00,,,0.06,,2013-02-03 05:42:00,
2013-02-03 00:52:00,28.0,22.0,30.07,West,278,0.0,3.0,79,0.00,,,0.06,,2013-02-03 05:52:00,
2013-02-03 01:02:00,28.0,22.0,30.06,West,279,2.0,6.0,78,0.00,,,0.06,,2013-02-03 06:02:00,
2013-02-03 01:11:00,28.0,22.0,30.06,West,279,2.0,6.0,78,0.00,,,0.06,,2013-02-03 06:11:00,
2013-02-03 01:21:00,27.0,21.0,30.06,West,278,2.0,8.0,78,0.00,,,0.06,,2013-02-03 06:21:00,
2013-02-03 01:32:00,27.0,21.0,30.05,West,278,0.0,5.0,77,0.00,,,0.06,,2013-02-03 06:32:00,
2013-02-03 01:42:00,27.0,21.0,30.05,West,278,0.0,5.0,77,0.00,,,0.06,,2013-02-03 06:42:00,
2013-02-03 01:52:00,27.0,21.0,30.05,West,278,1.0,4.0,77,0.00,,,0.06,,2013-02-03 06:52:00,
2013-02-03 02:02:00,27.0,21.0,30.04,West,278,0.0,4.0,78,0.00,,,0.06,,2013-02-03 07:02:00,
2013-02-03 02:11:00,27.0,21.0,30.04,West,278,0.0,4.0,78,0.00,,,0.06,,2013-02-03 07:11:00,
2013-02-03 02:21:00,27.0,21.0,30.04,West,278,0.0,0.0,78,0.00,,,0.06,,2013-02-03 07:21:00,
2013-02-03 02:32:00,27.0,21.0,30.04,West,278,1.0,4.0,77,0.00,,,0.06,,2013-02-03 07:32:00,
2013-02-03 02:42:00,27.0,21.0,30.04,West,278,1.0,4.0,77,0.00,,,0.06,,2013-02-03 07:42:00,
2013-02-03 02:52:00,27.0,21.0,30.04,West,272,1.0,8.0,77,0.00,,,0.06,,2013-02-03 07:52:00,
2013-02-03 03:02:00,27.0,20.0,30.03,West,274,3.0,6.0,76,0.00,,,0.06,,2013-02-03 08:02:00,
2013-02-03 03:11:00,27.0,20.0,30.03,West,274,3.0,6.0,76,0.00,,,0.06,,2013-02-03 08:11:00,
2013-02-03 03:22:00,26.0,19.0,30.03,West,281,5.0,9.0,76,0.00,,,0.06,,2013-02-03 08:22:00,
2013-02-03 03:32:00,25.0,19.0,30.03,West,279,5.0,8.0,77,0.00,,,0.06,,2013-02-03 08:32:00,
2013-02-03 03:41:00,25.0,19.0,30.03,West,279,5.0,8.0,77,0.00,,,0.06,,2013-02-03 08:41:00,
2013-02-03 03:52:00,25.0,19.0,30.03,West,277,4.0,9.0,77,0.00,,,0.06,,2013-02-03 08:52:00,
2013-02-03 04:03:00,24.0,18.0,30.02,WNW,286,1.0,9.0,77,0.00,,,0.06,,2013-02-03 09:03:00,
2013-02-03 04:11:00,24.0,18.0,30.02,WNW,286,1.0,9.0,77,0.00,,,0.06,,2013-02-03 09:11:00,
2013-02-03 04:21:00,23.0,17.0,30.01,WNW,286,4.0,8.0,77,0.00,,,0.06,,2013-02-03 09:21:00,
2013-02-03 04:32:00,22.0,16.0,30.01,WNW,285,3.0,7.0,77,0.00,,,0.06,,2013-02-03 09:32:00,
2013-02-03 04:42:00,22.0,16.0,30.01,WNW,285,3.0,7.0,77,0.00,,,0.06,,2013-02-03 09:42:00,
2013-02-03 04:51:00,22.0,16.0,30.01,WNW,285,3.0,6.0,78,0.00,,,0.06,,2013-02-03 09:51:00,
2013-02-03 05:01:00,21.0,15.0,30.01,WNW,284,4.0,8.0,78,0.00,,,0.06,,2013-02-03 10:01:00,
2013-02-03 05:11:00,21.0,15.0,30.01,WNW,284,1.0,7.0,78,0.00,,,0.06,,2013-02-03 10:11:00,
2013-02-03 05:21:00,21.0,15.0,30.01,WNW,284,1.0,7.0,78,0.00,,,0.06,,2013-02-03 10:21:00,
2013-02-03 05:32:00,21.0,15.0,30.01,WNW,283,3.0,6.0,78,0.00,,,0.06,,2013-02-03 10:32:00,
2013-02-03 05:42:00,21.0,15.0,30.01,WNW,283,3.0,6.0,78,0.00,,,0.06,,2013-02-03 10:42:00,
2013-02-03 05:52:00,20.0,14.0,30.01,WNW,283,1.0,5.0,78,0.00,,,0.06,,2013-02-03 10:52:00,
2013-02-03 06:02:00,20.0,15.0,30.00,WNW,283,2.0,4.0,79,0.00,,,0.06,,2013-02-03 11:02:00,
2013-02-03 06:11:00,20.0,15.0,30.00,WNW,283,2.0,4.0,79,0.00,,,0.06,,2013-02-03 11:11:00,
2013-02-03 06:22:00,20.0,15.0,30.00,WNW,283,2.0,4.0,79,0.00,,,0.06,,2013-02-03 11:22:00,
2013-02-03 06:32:00,21.0,16.0,30.00,WNW,282,3.0,7.0,79,0.00,,,0.06,,2013-02-03 11:32:00,
2013-02-03 06:42:00,21.0,16.0,30.00,WNW,282,3.0,7.0,79,0.00,,,0.06,,2013-02-03 11:42:00,
2013-02-03 06:52:00,21.0,16.0,30.00,West,270,3.0,9.0,79,0.00,,,0.06,,2013-02-03 11:52:00,
2013-02-03 07:02:00,21.0,15.0,30.00,West,271,3.0,8.0,78,0.00,,,0.06,,2013-02-03 12:02:00,
2013-02-03 07:12:00,21.0,15.0,30.00,West,271,3.0,8.0,78,0.00,,,0.06,,2013-02-03 12:12:00,
2013-02-03 07:22:00,20.0,14.0,30.00,West,269,5.0,8.0,77,0.00,,,0.05,,2013-02-03 12:22:00,
2013-02-03 07:32:00,20.0,14.0,30.01,West,274,1.0,6.0,77,0.00,,,0.05,,2013-02-03 12:32:00,
2013-02-03 07:42:00,20.0,14.0,30.01,West,274,1.0,6.0,77,0.00,,,0.05,,2013-02-03 12:42:00,
2013-02-03 07:53:00,20.0,14.0,30.01,West,261,3.0,11.0,76,0.00,,,0.05,,2013-02-03 12:53:00,
2013-02-03 08:03:00,20.0,14.0,30.01,West,263,4.0,9.0,76,0.00,,,0.05,,2013-02-03 13:03:00,
2013-02-03 08:11:00,20.0,14.0,30.02,West,264,4.0,6.0,76,0.00,,,0.03,,2013-02-03 13:11:00,
2013-02-03 08:21:00,20.0,14.0,30.02,West,264,4.0,6.0,76,0.00,,,0.03,,2013-02-03 13:21:00,
2013-02-03 08:32:00,20.0,14.0,30.03,West,281,2.0,9.0,76,0.00,,,0.03,,2013-02-03 13:32:00,
2013-02-03 08:42:00,20.0,14.0,30.03,West,281,2.0,9.0,76,0.00,,,0.03,,2013-02-03 13:42:00,
2013-02-03 08:52:00,19.0,13.0,30.03,West,265,3.0,8.0,76,0.00,,,0.03,,2013-02-03 13:52:00,
2013-02-03 09:03:00,19.0,12.0,30.03,West,266,4.0,7.0,75,0.00,,,0.03,,2013-02-03 14:03:00,
2013-02-03 09:11:00,19.0,12.0,30.03,West,266,4.0,7.0,75,0.00,,,0.03,,2013-02-03 14:11:00,
2013-02-03 09:22:00,19.0,12.0,30.03,West,271,4.0,10.0,75,0.00,,,0.02,,2013-02-03 14:22:00,
2013-02-03 09:32:00,19.0,12.0,30.03,West,269,5.0,10.0,75,0.00,,,0.02,,2013-02-03 14:32:00,
2013-02-03 09:42:00,19.0,12.0,30.03,West,269,5.0,10.0,75,0.00,,,0.02,,2013-02-03 14:42:00,
2013-02-03 09:52:00,19.0,12.0,30.03,West,267,3.0,11.0,75,0.00,,,0.02,,2013-02-03 14:52:00,
2013-02-03 10:03:00,20.0,13.0,30.03,West,276,3.0,10.0,75,0.00,,,0.02,,2013-02-03 15:03:00,
2013-02-03 10:11:00,20.0,13.0,30.04,West,269,3.0,9.0,75,0.00,,,0.01,,2013-02-03 15:11:00,
2013-02-03 10:22:00,20.0,13.0,30.04,West,269,3.0,9.0,75,0.00,,,0.01,,2013-02-03 15:22:00,
2013-02-03 10:33:00,20.0,13.0,30.03,West,267,6.0,10.0,74,0.00,,,0.01,,2013-02-03 15:33:00,
2013-02-03 10:42:00,20.0,13.0,30.03,West,267,6.0,10.0,74,0.00,,,0.01,,2013-02-03 15:42:00,
2013-02-03 10:51:00,20.0,13.0,30.03,West,281,3.0,8.0,74,0.00,,,0.01,,2013-02-03 15:51:00,
2013-02-03 11:03:00,21.0,14.0,30.03,West,273,3.0,8.0,74,0.00,,,0.01,,2013-02-03 16:03:00,
2013-02-03 11:11:00,21.0,14.0,30.03,West,273,3.0,8.0,74,0.00,,,0.01,,2013-02-03 16:11:00,
2013-02-03 11:22:00,21.0,14.0,30.04,West,274,3.0,8.0,73,0.00,,,0.01,,2013-02-03 16:22:00,
2013-02-03 11:33:00,22.0,14.0,30.04,West,274,5.0,9.0,72,0.00,,,0.01,,2013-02-03 16:33:00,
2013-02-03 11:42:00,22.0,14.0,30.04,West,274,5.0,9.0,72,0.00,,,0.01,,2013-02-03 16:42:00,
2013-02-03 11:52:00,22.0,14.0,30.03,West,266,6.0,10.0,72,0.00,,,0.01,,2013-02-03 16:52:00,
2013-02-03 12:03:00,23.0,15.0,30.04,West,274,5.0,10.0,72,0.00,,,0.01,,2013-02-03 17:03:00,
2013-02-03 12:11:00,23.0,15.0,30.04,West,274,5.0,10.0,72,0.00,,,0.01,,2013-02-03 17:11:00,
2013-02-03 12:22:00,23.0,15.0,30.03,West,273,1.0,8.0,72,0.00,,,0.01,,2013-02-03 17:22:00,
2013-02-03 12:32:00,23.0,15.0,30.03,West,280,2.0,8.0,71,0.00,,,0.01,,2013-02-03 17:32:00,
2013-02-03 12:42:00,23.0,15.0,30.03,West,280,2.0,8.0,71,0.00,,,0.01,,2013-02-03 17:42:00,
2013-02-03 12:52:00,24.0,16.0,30.04,West,279,3.0,8.0,71,0.00,,,0.01,,2013-02-03 17:52:00,
2013-02-03 13:03:00,24.0,16.0,30.04,WNW,291,6.0,11.0,71,0.00,,,0.01,,2013-02-03 18:03:00,
2013-02-03 13:12:00,24.0,16.0,30.04,WNW,291,6.0,11.0,71,0.00,,,0.01,,2013-02-03 18:12:00,
2013-02-03 13:23:00,24.0,16.0,30.04,WNW,293,3.0,8.0,71,0.00,,,0.01,,2013-02-03 18:23:00,
2013-02-03 13:33:00,24.0,16.0,30.04,West,278,5.0,9.0,71,0.00,,,0.01,,2013-02-03 18:33:00,
2013-02-03 13:42:00,24.0,16.0,30.04,West,278,5.0,9.0,71,0.00,,,0.01,,2013-02-03 18:42:00,
2013-02-03 13:51:00,24.0,16.0,30.04,West,277,5.0,8.0,71,0.00,,,0.01,,2013-02-03 18:51:00,
2013-02-03 14:02:00,25.0,17.0,30.05,West,275,2.0,12.0,71,0.00,,,0.01,,2013-02-03 19:02:00,
2013-02-03 14:11:00,25.0,17.0,30.05,West,275,2.0,12.0,71,0.00,,,0.01,,2013-02-03 19:11:00,
2013-02-03 14:22:00,24.0,16.0,30.05,WNW,289,6.0,10.0,72,0.00,,,0.01,,2013-02-03 19:22:00,
2013-02-03 14:32:00,24.0,17.0,30.06,West,273,8.0,15.0,74,0.00,,,0.01,,2013-02-03 19:32:00,
2013-02-03 14:42:00,24.0,17.0,30.06,West,273,8.0,15.0,74,0.00,,,0.01,,2013-02-03 19:42:00,
2013-02-03 14:51:00,24.0,17.0,30.06,West,269,7.0,12.0,75,0.00,,,0.01,,2013-02-03 19:51:00,
2013-02-03 15:02:00,23.0,17.0,30.07,West,270,4.0,12.0,78,0.00,,,0.01,,2013-02-03 20:02:00,
2013-02-03 15:12:00,23.0,17.0,30.07,West,270,4.0,12.0,78,0.00,,,0.01,,2013-02-03 20:12:00,
2013-02-03 15:22:00,23.0,17.0,30.07,West,270,4.0,12.0,78,0.00,,,0.01,,2013-02-03 20:22:00,
2013-02-03 15:33:00,23.0,17.0,30.08,West,267,3.0,10.0,79,0.00,,,0.01,,2013-02-03 20:33:00,
2013-02-03 15:42:00,23.0,17.0,30.08,West,267,3.0,10.0,79,0.00,,,0.01,,2013-02-03 20:42:00,
2013-02-03 15:52:00,24.0,18.0,30.08,West,263,3.0,9.0,79,0.00,,,0.01,,2013-02-03 20:52:00,
2013-02-03 16:03:00,24.0,18.0,30.08,West,272,4.0,7.0,79,0.00,,,0.01,,2013-02-03 21:03:00,
2013-02-03 16:11:00,24.0,18.0,30.08,West,272,4.0,7.0,79,0.00,,,0.01,,2013-02-03 21:11:00,
2013-02-03 16:21:00,24.0,19.0,30.09,West,272,1.0,8.0,80,0.00,,,0.00,,2013-02-03 21:21:00,
2013-02-03 16:33:00,24.0,19.0,30.10,West,269,3.0,8.0,80,0.00,,,0.00,,2013-02-03 21:33:00,
2013-02-03 16:42:00,24.0,19.0,30.10,West,269,3.0,8.0,80,0.00,,,0.00,,2013-02-03 21:42:00,
2013-02-03 16:51:00,24.0,19.0,30.10,West,268,1.0,7.0,81,0.00,,,0.00,,2013-02-03 21:51:00,
2013-02-03 17:02:00,24.0,19.0,30.11,West,280,3.0,8.0,81,0.00,,,0.00,,2013-02-03 22:02:00,
2013-02-03 17:11:00,24.0,19.0,30.11,West,280,3.0,8.0,81,0.00,,,0.00,,2013-02-03 22:11:00,
2013-02-03 17:21:00,24.0,19.0,30.10,West,276,3.0,10.0,81,0.00,,,0.00,,2013-02-03 22:21:00,
2013-02-03 17:32:00,24.0,19.0,30.11,West,280,4.0,9.0,81,0.00,,,0.00,,2013-02-03 22:32:00,
2013-02-03 17:42:00,24.0,19.0,30.11,West,280,4.0,9.0,81,0.00,,,0.00,,2013-02-03 22:42:00,
2013-02-03 17:51:00,24.0,19.0,30.11,West,273,2.0,8.0,81,0.00,,,0.00,,2013-02-03 22:51:00,
2013-02-03 18:01:00,24.0,19.0,30.12,West,274,1.0,8.0,81,0.00,,,0.00,,2013-02-03 23:01:00,
2013-02-03 18:12:00,24.0,19.0,30.12,West,274,1.0,8.0,81,0.00,,,0.00,,2013-02-03 23:12:00,
2013-02-03 18:22:00,24.0,19.0,30.12,West,275,2.0,7.0,80,0.00,,,0.00,,2013-02-03 23:22:00,
2013-02-03 18:32:00,24.0,19.0,30.11,West,274,1.0,6.0,80,0.00,,,0.00,,2013-02-03 23:32:00,
2013-02-03 18:42:00,24.0,19.0,30.11,West,274,1.0,6.0,80,0.00,,,0.00,,2013-02-03 23:42:00,
2013-02-03 18:52:00,24.0,19.0,30.12,West,274,1.0,6.0,80,0.00,,,0.00,,2013-02-03 23:52:00,
2013-02-03 19:02:00,24.0,19.0,30.14,West,274,1.0,4.0,81,0.00,,,0.00,,2013-02-04 00:02:00,
2013-02-03 19:11:00,24.0,19.0,30.14,West,274,1.0,4.0,81,0.00,,,0.00,,2013-02-04 00:11:00,
2013-02-03 19:22:00,24.0,19.0,30.14,West,274,1.0,5.0,81,0.00,,,0.00,,2013-02-04 00:22:00,
2013-02-03 19:32:00,24.0,19.0,30.15,West,271,4.0,8.0,82,0.00,,,0.00,,2013-02-04 00:32:00,
2013-02-03 19:42:00,24.0,19.0,30.15,West,271,4.0,8.0,82,0.00,,,0.00,,2013-02-04 00:42:00,
2013-02-03 19:51:00,24.0,19.0,30.15,West,275,2.0,8.0,81,0.00,,,0.00,,2013-02-04 00:51:00,
2013-02-03 20:01:00,23.0,17.0,30.16,West,272,6.0,10.0,78,0.00,,,0.00,,2013-02-04 01:01:00,
2013-02-03 20:11:00,23.0,17.0,30.16,West,277,3.0,14.0,76,0.00,,,0.00,,2013-02-04 01:11:00,
2013-02-03 20:21:00,23.0,17.0,30.16,West,277,3.0,14.0,76,0.00,,,0.00,,2013-02-04 01:21:00,
2013-02-03 20:32:00,22.0,15.0,30.16,West,278,1.0,7.0,74,0.00,,,0.00,,2013-02-04 01:32:00,
2013-02-03 20:42:00,22.0,15.0,30.16,West,278,1.0,7.0,74,0.00,,,0.00,,2013-02-04 01:42:00,
2013-02-03 20:52:00,22.0,15.0,30.17,West,278,1.0,6.0,75,0.00,,,0.00,,2013-02-04 01:52:00,
2013-02-03 21:02:00,22.0,15.0,30.17,West,278,2.0,3.0,74,0.00,,,0.00,,2013-02-04 02:02:00,
2013-02-03 21:11:00,22.0,15.0,30.17,West,278,2.0,3.0,74,0.00,,,0.00,,2013-02-04 02:11:00,
2013-02-03 21:21:00,21.0,14.0,30.18,West,278,0.0,5.0,74,0.00,,,0.00,,2013-02-04 02:21:00,
2013-02-03 21:32:00,21.0,14.0,30.18,West,278,0.0,3.0,75,0.00,,,0.00,,2013-02-04 02:32:00,
2013-02-03 21:41:00,21.0,14.0,30.18,West,278,0.0,3.0,75,0.00,,,0.00,,2013-02-04 02:41:00,
2013-02-03 21:52:00,21.0,14.0,30.17,West,278,0.0,2.0,75,0.00,,,0.00,,2013-02-04 02:52:00,
2013-02-03 22:02:00,20.0,14.0,30.17,West,278,0.0,0.0,76,0.00,,,0.00,,2013-02-04 03:02:00,
2013-02-03 22:11:00,20.0,14.0,30.17,West,278,0.0,1.0,76,0.00,,,0.00,,2013-02-04 03:11:00,
2013-02-03 22:21:00,20.0,14.0,30.17,West,278,0.0,1.0,76,0.00,,,0.00,,2013-02-04 03:21:00,
2013-02-03 22:32:00,19.0,13.0,30.17,West,278,0.0,1.0,76,0.00,,,0.00,,2013-02-04 03:32:00,
2013-02-03 22:42:00,19.0,13.0,30.17,West,278,0.0,1.0,76,0.00,,,0.00,,2013-02-04 03:42:00,
2013-02-03 22:51:00,18.0,12.0,30.16,West,278,0.0,1.0,76,0.00,,,0.00,,2013-02-04 03:51:00,
2013-02-03 23:01:00,18.0,12.0,30.17,West,278,0.0,0.0,78,0.00,,,0.00,,2013-02-04 04:01:00,
2013-02-03 23:11:00,18.0,12.0,30.17,West,278,0.0,0.0,78,0.00,,,0.00,,2013-02-04 04:11:00,
2013-02-03 23:21:00,18.0,12.0,30.17,West,278,0.0,0.0,78,0.00,,,0.00,,2013-02-04 04:21:00,
2013-02-03 23:32:00,18.0,13.0,30.17,West,278,0.0,0.0,79,0.00,,,0.00,,2013-02-04 04:32:00,
2013-02-03 23:42:00,18.0,13.0,30.17,West,278,0.0,0.0,79,0.00,,,0.00,,2013-02-04 04:42:00,
2013-02-03 23:52:00,18.0,13.0,30.17,West,278,0.0,0.0,79,0.00,,,0.00,,2013-02-04 04:52:00,